| time (UTC) | temp C | wind direction | speed KPH | gust KPH | rain 1hr cm | rain 24hr cm | rain mn cm | humidity % | barometer mb |
| 20260506130025 | 25 | 360 | 9.7 | 16.1 | 0.00 | 0.00 | 0.00 | 94 | 1011.1 |
| 20260506124522 | 24 | 105 | 11.3 | 16.1 | 0.00 | 0.00 | 0.00 | 94 | 1011.0 |
| 20260506123022 | 24 | 125 | 11.3 | 19.3 | 0.00 | 0.00 | 0.00 | 94 | 1011.0 |
| 20260506121521 | 24 | 65 | 14.5 | 22.5 | 0.00 | 0.00 | 0.00 | 94 | 1010.6 |
| 20260506120023 | 24 | 360 | 14.5 | 24.1 | 0.00 | 0.00 | 0.00 | 94 | 1010.5 |
| 20260506114523 | 24 | 360 | 12.9 | 19.3 | 0.00 | 0.00 | 0.00 | 94 | 1010.2 |
| 20260506113020 | 24 | 360 | 12.9 | 19.3 | 0.00 | 0.00 | 0.00 | 94 | 1010.1 |
| 20260506111519 | 24 | 138 | 9.7 | 14.5 | 0.00 | 0.00 | 0.00 | 94 | 1010.1 |
| 20260506110018 | 24 | 129 | 11.3 | 17.7 | 0.00 | 0.00 | 0.00 | 94 | 1010.1 |
| 20260506104539 | 24 | 140 | 12.9 | 22.5 | 0.00 | 0.00 | 0.00 | 94 | 1010.1 |
| 20260506103017 | 24 | 360 | 12.9 | 24.1 | 0.00 | 0.00 | 0.00 | 94 | 1009.9 |
| 20260506101517 | 24 | 143 | 11.3 | 19.3 | 0.00 | 0.00 | 0.00 | 94 | 1009.7 |
| 20260506100017 | 24 | 126 | 11.3 | 16.1 | 0.00 | 0.00 | 0.00 | 94 | 1009.8 |
| 20260506094514 | 24 | 360 | 9.7 | 19.3 | 0.00 | 0.00 | 0.00 | 94 | 1010.0 |
| 20260506093014 | 24 | 122 | 14.5 | 22.5 | 0.00 | 0.00 | 0.00 | 94 | 1009.9 |
| 20260506091513 | 24 | 360 | 12.9 | 19.3 | 0.00 | 0.00 | 0.00 | 94 | 1010.1 |
| 20260506090012 | 24 | 155 | 16.1 | 20.9 | 0.00 | 0.00 | 0.00 | 93 | 1010.1 |
| 20260506084510 | 24 | 140 | 14.5 | 20.9 | 0.00 | 0.00 | 0.00 | 93 | 1010.2 |
| 20260506083021 | 24 | 161 | 14.5 | 20.9 | 0.00 | 0.00 | 0.00 | 93 | 1010.4 |
| 20260506081509 | 24 | 129 | 9.7 | 16.1 | 0.00 | 0.00 | 0.00 | 93 | 1010.3 |
| 20260506073006 | 24 | 137 | 16.1 | 24.1 | 0.00 | 0.00 | 0.00 | 93 | 1010.6 |
| 20260506071506 | 24 | 166 | 16.1 | 22.5 | 0.00 | 0.00 | 0.00 | 93 | 1010.6 |
| 20260506061557 | 24 | 142 | 17.7 | 29.0 | 0.00 | 0.00 | 0.00 | 93 | 1010.7 |
| 20260506044556 | 24 | 139 | 25.7 | 35.4 | 0.00 | 0.00 | 0.00 | 92 | 1010.8 |
| 20260506043053 | 24 | 144 | 25.7 | 37.0 | 0.00 | 0.00 | 0.00 | 92 | 1010.7 |
| 20260506041547 | 24 | 165 | 27.4 | 35.4 | 0.00 | 0.00 | 0.00 | 92 | 1010.7 |
| 20260506040050 | 24 | 145 | 29.0 | 45.1 | 0.00 | 0.00 | 0.00 | 92 | 1010.6 |
| 20260506034546 | 24 | 137 | 30.6 | 41.8 | 0.00 | 0.00 | 0.00 | 92 | 1010.6 |
| 20260506033044 | 24 | 161 | 30.6 | 43.5 | 0.00 | 0.00 | 0.00 | 92 | 1010.8 |
| 20260506031546 | 24 | 360 | 29.0 | 41.8 | 0.00 | 0.00 | 0.00 | 92 | 1010.6 |
| 20260506030043 | 24 | 164 | 30.6 | 40.2 | 0.00 | 0.00 | 0.00 | 92 | 1010.5 |
| 20260506024546 | 24 | 171 | 27.4 | 37.0 | 0.00 | 0.00 | 0.00 | 92 | 1010.3 |
| 20260506023041 | 24 | 360 | 27.4 | 35.4 | 0.00 | 0.00 | 0.00 | 92 | 1010.1 |
| 20260506021553 | 24 | 150 | 25.7 | 33.8 | 0.00 | 0.00 | 0.00 | 92 | 1009.8 |
| 20260506020041 | 25 | 143 | 25.7 | 30.6 | 0.00 | 0.00 | 0.00 | 92 | 1009.7 |
| 20260506014540 | 24 | 141 | 22.5 | 32.2 | 0.00 | 0.00 | 0.00 | 92 | 1009.4 |
| 20260506013044 | 24 | 122 | 24.1 | 33.8 | 0.00 | 0.00 | 0.00 | 92 | 1009.3 |
| 20260506011545 | 24 | 360 | 27.4 | 35.4 | 0.00 | 0.00 | 0.00 | 92 | 1009.0 |
| 20260506010047 | 25 | 155 | 24.1 | 32.2 | 0.00 | 0.00 | 0.00 | 92 | 1009.0 |
| 20260506004538 | 25 | 157 | 27.4 | 38.6 | 0.00 | 0.00 | 0.00 | 91 | 1009.0 |
| 20260506003038 | 25 | 144 | 22.5 | 35.4 | 0.00 | 0.00 | 0.00 | 91 | 1009.0 |
| 20260506001537 | 25 | 145 | 29.0 | 40.2 | 0.00 | 0.00 | 0.00 | 91 | 1008.8 |
| 20260506000038 | 25 | 140 | 24.1 | 32.2 | 0.00 | 0.00 | 0.00 | 91 | 1008.9 |
| 20260505234559 | 25 | 142 | 25.7 | 32.2 | 0.00 | 0.00 | 0.00 | 90 | 1009.1 |
| 20260505233035 | 25 | 161 | 25.7 | 33.8 | 0.00 | 0.00 | 0.00 | 90 | 1009.2 |
| 20260505231534 | 25 | 151 | 25.7 | 37.0 | 0.00 | 0.00 | 0.00 | 89 | 1009.1 |
| 20260505230033 | 25 | 113 | 25.7 | 35.4 | 0.00 | 0.00 | 0.00 | 89 | 1009.2 |
| 20260505224533 | 25 | 135 | 24.1 | 32.2 | 0.00 | 0.00 | 0.00 | 89 | 1009.2 |
| 20260505223032 | 25 | 177 | 22.5 | 32.2 | 0.00 | 0.00 | 0.00 | 88 | 1009.3 |
| 20260505221531 | 25 | 149 | 22.5 | 33.8 | 0.00 | 0.00 | 0.00 | 88 | 1009.2 |
| 20260505220030 | 25 | 192 | 22.5 | 33.8 | 0.00 | 0.00 | 0.00 | 88 | 1009.4 |
| 20260505214536 | 26 | 169 | 22.5 | 32.2 | 0.00 | 0.00 | 0.00 | 87 | 1009.3 |
| 20260505213027 | 26 | 178 | 20.9 | 33.8 | 0.00 | 0.00 | 0.00 | 88 | 1009.6 |
| 20260505211538 | 26 | 154 | 22.5 | 32.2 | 0.00 | 0.00 | 0.00 | 87 | 1009.8 |
| 20260505210025 | 26 | 151 | 24.1 | 33.8 | 0.00 | 0.00 | 0.00 | 87 | 1010.1 |
| 20260505204525 | 26 | 156 | 24.1 | 32.2 | 0.00 | 0.00 | 0.00 | 86 | 1010.1 |
| 20260505203025 | 26 | 121 | 25.7 | 33.8 | 0.00 | 0.00 | 0.00 | 86 | 1010.4 |
| 20260505201522 | 26 | 167 | 24.1 | 32.2 | 0.00 | 0.00 | 0.00 | 86 | 1010.4 |
| 20260505200021 | 26 | 163 | 24.1 | 35.4 | 0.00 | 0.00 | 0.00 | 86 | 1010.6 |
| 20260505194519 | 26 | 157 | 24.1 | 35.4 | 0.00 | 0.00 | 0.00 | 86 | 1010.4 |
| 20260505193018 | 26 | 167 | 24.1 | 37.0 | 0.00 | 0.00 | 0.00 | 86 | 1010.4 |
| 20260505191517 | 26 | 161 | 27.4 | 40.2 | 0.00 | 0.00 | 0.00 | 87 | 1010.5 |
| 20260505190016 | 25 | 180 | 25.7 | 37.0 | 0.00 | 0.00 | 0.00 | 87 | 1010.6 |
| 20260505184524 | 25 | 186 | 25.7 | 33.8 | 0.00 | 0.00 | 0.00 | 88 | 1010.7 |
| 20260505183014 | 25 | 112 | 22.5 | 32.2 | 0.00 | 0.00 | 0.00 | 87 | 1011.1 |
| 20260505181514 | 25 | 173 | 22.5 | 32.2 | 0.00 | 0.00 | 0.00 | 86 | 1011.0 |
| 20260505180012 | 25 | 166 | 22.5 | 38.6 | 0.00 | 0.00 | 0.00 | 86 | 1011.1 |
| 20260505174512 | 25 | 146 | 25.7 | 40.2 | 0.00 | 0.00 | 0.00 | 86 | 1011.3 |
| 20260505173014 | 25 | 169 | 27.4 | 40.2 | 0.00 | 0.00 | 0.00 | 86 | 1011.3 |
| 20260505171511 | 25 | 360 | 24.1 | 35.4 | 0.00 | 0.00 | 0.00 | 86 | 1011.4 |
| 20260505170012 | 25 | 360 | 24.1 | 35.4 | 0.00 | 0.00 | 0.00 | 85 | 1011.4 |
| 20260505164510 | 25 | 173 | 24.1 | 35.4 | 0.00 | 0.00 | 0.00 | 85 | 1011.4 |
| 20260505163009 | 25 | 360 | 24.1 | 41.8 | 0.00 | 0.00 | 0.00 | 85 | 1011.1 |
| 20260505161508 | 25 | 191 | 25.7 | 38.6 | 0.00 | 0.00 | 0.00 | 85 | 1011.2 |
| 20260505153003 | 25 | 194 | 27.4 | 40.2 | 0.00 | 0.00 | 0.00 | 86 | 1010.8 |
| 20260505151501 | 25 | 163 | 24.1 | 35.4 | 0.00 | 0.00 | 0.00 | 86 | 1010.8 |
| 20260505150104 | 25 | 166 | 24.1 | 32.2 | 0.00 | 0.00 | 0.00 | 86 | 1011.0 |
| 20260505140106 | 25 | 173 | 25.7 | 33.8 | 0.00 | 0.00 | 0.00 | 86 | 1010.9 |